Showing default

LEMUR 2 NIMBUS2000, 58899

Orbit data source: Space-Track

LEMUR 2 NIMBUS2000, 58899 is an American payload satellite in SSO that was launched on Wed, 31 Jan 2024 UTC via an ELECTRON launch vehicle from the Rocket Lab Launch Complex (RLLC). Payload-class satellites include a variety of spacecraft equipped with specific instruments for various scientific and technological missions. These include communications satellites like Starlink; space stations such as the ISS; scientific satellites like the Hubble; Earth observation satellites from companies like Planet Labs, Umbra, and HawkEye 360; GPS; miniature CubeSats for education and research; and military/defense satellites.

Loading next visibility...
Identifier
58899, 2024-022A
Orbit
SSO
Country
Flag of USUS
Related business
Manufacturer
Spire/Glasgow
Mission
Operational Commercial Early Warn
Bus & Motor
CUBESAT 3U, Unknown motor
Mass
~25 kg wet, ~25 kg dry
Launch date (UTC)
2024-01-31 (2 years ago)
Launch vehicle
ELECTRON
Launch site
Rocket Lab Launch Complex (RLLC)
Object type
Payload
Rocket body
Debris
Shape & HBR
Box + 2 Pan, 0.5 m
Radar Cross Section
0.146 m², Medium (>0.1 m² and < 1m²)

Expand to show TLE details & history
Last TLE update: 13 hours ago

TLE from 13 hours ago
0 LEMUR 2 NIMBUS2000
1 58899U 24022A   26166.58429820  .00014175  00000-0  35710-3 0  9995
2 58899  97.4104  16.5657 0010292 120.9554 239.2704 15.39953559132025
Epoch: 2026-06-15T14:01Z
TLE epoch observation values (Epoch: 2026-06-15T14:01:23.364Z)
Latitude
-0.00009°
Longitude
-97.65023°
Altitude
452.959 km
Speed
7.639 km/s
True Right ascension
01h 06m 15s
True Declination
0° 00' 00"
Sunlit
Object was in daylight at epoch
Visualization orbit readout
Latitude
Unknown
Longitude
Unknown
Altitude
Unknown
Speed
Unknown
Apparent Right ascension
Unknown
Apparent Declination
Unknown
Sunlit
N/A
Visualization observer readout
Local Sidereal Time
13:55:57
Azimuth
Unknown
Elevation
Unknown
Doppler factor
Unknown
Orbital elements
Apogee altitude
450.206 km
Perigee altitude
436.165 km
Semi-major axis
6,821.323 km
Eccentricity
0.00103
Inclination
97.4104°
RAAN
16.5657°
Arg. of periapsis
120.9554°
True anomaly
239.16909°
Mean anomaly
239.2704°
Eccentric anomaly
239.21974°
Mean motion
3.85248 °/min
Orbital period
93.45 mins
BSTAR
0.0003571
Loading maneuver chart data...
Computing Atmospheric mass density...
Loading historical data...
Loading historical data...
Loading historical data...
Loading historical data...
Loading historical data...
Loading historical data...
Loading historical data...

Documentation

Showing up to 5 results
|